Regional Weather Roundup
Issued by NWS

Home | Current Version | Previous Version | Text Only | Print | Product List | Glossary Off
Versions: 1 2 3 4 5 6 7 8 9 10 11 12 13 14 15 16 17 18 19 20 21 22 23 24 25 26 27 28 29 30 31 32 33 34 35 36 37 38 39 40 41 42 43 44 45 46 47 48 49 50

000
ASUS43 KDTX 010501
RWRMI
MICHIGAN HOURLY REGIONAL WEATHER ROUNDUP
NATIONAL WEATHER SERVICE DETROIT/PONTIAC MI
100 AM EDT WED OCT 01 2014

NOTE: "FAIR" INDICATES FEW OR NO CLOUDS BELOW 12,000 FEET WITH NO
SIGNIFICANT WEATHER AND/OR OBSTRUCTION TO VISIBILITY.

MIZ047>049-052>055-059>063-066>070-074>076-081>083-010600-
SOUTHEAST LOWER MICHIGAN

CITY           SKY/WX    TMP DP  RH WIND       PRES   REMARKS
ADRIAN         CLOUDY    51  48  89 NE7       30.04R
ALMA           CLOUDY    51  48  90 CALM      30.06S
ANN ARBOR      CLOUDY    52  48  86 N8        30.03S
BAD AXE        LGT RAIN  56  56 100 NE8       30.04R
CARO           CLOUDY    55  54  98 N5        30.03R FOG
DETROIT CITY   PTCLDY    54  48  80 N6        30.04R
DETROIT        CLOUDY    53  50  89 W3        30.04S
FLINT          CLOUDY    53  51  93 NW6       30.05S FOG
GROSSE ILE     CLOUDY    54  50  87 N5        30.02S
HILLSDALE      CLOUDY    52  51  95 NE5       30.04R
HOWELL         CLOUDY    50  49  97 CALM      30.04S FOG

CITY           SKY/WX    TMP DP  RH WIND       PRES   REMARKS
JACKSON        CLOUDY    50  48  93 CALM      30.04S
LAMBERTVILLE   PTCLDY    46  45  93 CALM      30.03S
LANSING        CLOUDY    51  48  89 N3        30.06R
LAPEER         CLOUDY    53  51  95 W5        30.03R FOG
MASON          CLOUDY    50  48  93 N3        30.05S
MT. CLEMENS    CLOUDY    53  53  99 W6        30.01R
PONTIAC        CLOUDY    52  51  97 N3        30.03R FOG
PORT HOPE        N/A     57  56  96 NE17      30.02S
PORT HURON     FOG       54  54 100 CALM      30.01S VSB 3/4
TRI CITIES     CLOUDY    52  49  89 NW7       30.07R
TROY           CLOUDY    56  51  84 CALM      30.05S
SAGINAW HB     CLOUDY    54  54 100 NW6       30.04S FOG
$$
MIZ043>046-050>051-056>058-064>065-071>073-077>080-010600-
SOUTHWEST LOWER MICHIGAN

CITY           SKY/WX    TMP DP  RH WIND       PRES   REMARKS
BATTLE CREEK   CLOUDY    53  47  79 NE9       30.04S
BIG RAPIDS     CLOUDY    52  51  99 E6        30.06R
COLDWATER      CLOUDY    55  50  86 NE5       30.03S
FREMONT        CLOUDY    52  49  92 CALM      30.05S
HOLLAND        CLOUDY    55  49  80 NE5       30.05
GRAND RAPIDS   CLOUDY    53  50  89 E7        30.06R
IONIA          CLOUDY    52  49  91 NE3       30.05S
KALAMAZOO      CLOUDY    54  49  83 NE3       30.04F
LUDINGTON      CLOUDY    49  48  95 CALM      30.07R
MARSHALL       CLOUDY    50  47  89 CALM      30.04S
MOUNT PLEASANT CLOUDY    51  48  90 CALM      30.06S
MUSKEGON       CLOUDY    54  48  80 NE3       30.06R
SOUTH HAVEN    CLOUDY    54  50  89 NE3       30.04S
$$
MIZ016>042-010600-
NORTHERN LOWER MICHIGAN

CITY           SKY/WX    TMP DP  RH WIND       PRES   REMARKS
ALPENA         CLOUDY    52  52 100 E9        30.07S FOG
BEAVER ISLAND  CLOUDY    55  50  85 SE3       30.07R
CADILLAC       CLOUDY    48  48 100 SE3       30.06R
CHARLEVOIX     CLOUDY    52  49  92 S3        30.10R
FRANKFORT      CLOUDY    52  48  87 CALM      30.06S
GAYLORD        CLOUDY    49  49 100 CALM      30.06S FOG
GRAYLING       CLOUDY    49  49 100 CALM      30.07R
HARBOR SPRINGS CLOUDY    50  47  91 CALM      30.07S
HOUGHTON LAKE  CLOUDY    49  47  93 CALM      30.07R
OSCODA         CLOUDY    54  54 100 NE9       30.04S FOG
PELLSTON       CLOUDY    50  48  93 CALM      30.07R
TRAVERSE CITY  CLOUDY    52  47  83 CALM      30.06R
$$
MIZ007>008-015-010600-
EASTERN UPPER MICHIGAN

CITY           SKY/WX    TMP DP  RH WIND       PRES   REMARKS
MACKINAC ISLAN CLOUDY    55  52  90 E7        30.06R
NEWBERRY       CLOUDY    49  46  91 SW6       30.07R
S. S. MARIE    MOCLDY    53  47  79 E5        30.06F
$$
MIZ004>006-011>014-085-010600-
CENTRAL UPPER MICHIGAN

CITY           SKY/WX    TMP DP  RH WIND       PRES   REMARKS
MANISTIQUE     CLOUDY    54  50  84 SE5       30.06S
SAWYER-GWINN   CLOUDY    44  43  93 CALM      30.06S FOG
$$
MIZ001>003-009>011-084-010600-
WESTERN UPPER MICHIGAN

CITY           SKY/WX    TMP DP  RH WIND       PRES   REMARKS
IRON MOUNTAIN  CLOUDY    47  44  90 SE5       30.04F
HOUGHTON       MOCLDY    42  40  92 SE8       30.03S
COPPER HARBOR    N/A     48  43  82 SW7       30.04F
$$

ABBREVIATIONS USED IN REMARKS
   TC - TEMPERATURE IN CELSIUS
  WCI - WIND CHILL INDEX
   HX - HEAT INDEX
  VSB - VISIBILITY



USA.gov is the U.S. government's official web portal to all federal, state and local government web resources and services.